STARLINK-1721 (46332 NORAD) Tracking and Keplerian Element Data

This shows tracking and keplerian element data for the satellite.

Feedback or suggestion? Click here.




ElementValue
Catalog46332
NameSTARLINK-1721
Epoch Orbit402
Epoch Day267.83334491
Epoch Year2020
RAAN329.8291
Inclination52.9997
Eccentricity0.0001247
Argument of Perigee55.2767
Mean Anonmoly160.5633
Mean Motion15.62757287
Decay Rate-0.00020573
L11 46332U 20062H 20267.83334491 -.00020573 00000-0 -21937-3 0 9994
L22 46332 52.9997 329.8291 0001247 55.2767 160.5633 15.62757287 4021

Live tracking and technical data element details for STARLINK-1721 (NORAD 46332). STARLINK-1721 can be tracked NOW for your location showing map with azimuth and elevation plus other details from your city location.

Track the satellite on the map from your city or location and see movement details for azimuth, elevation, latitude, longitude, range, height, and movement on the map or in text.







IsCatalogInMostPopularTable: catalog: 46332, numindb: 3
Update: records affected: 1



GetName: 46332 STARLINK-1721

Hit Count: updated at: Thu, 24 Sep 2020 18:37:37 GMT